Terminal Aerodrome Forecast
Issued by NWS Boston, MA

Home | Current Version | Previous Version | Text Only | Print | Product List | Glossary On
Versions: 1 2 3 4 5 6 7 8 9 10 11 12 13 14 15 16 17 18 19 20 21 22 23 24 25 26 27 28 29 30 31 32 33 34 35 36 37 38 39 40 41 42
000
FTUS41 KBOX 250531
TAFBOS
TAF
KBOS 250531Z 2506/2612 32011KT P6SM FEW060
     FM251400 34007KT P6SM FEW150
     FM251700 10009KT P6SM SCT150
     FM252000 14010KT P6SM SCT140
     FM260100 17008KT P6SM BKN110
     FM260900 12007KT P6SM -RA OVC050=

USA.gov is the U.S. government's official web portal to all federal, state and local government web resources and services.